Time,TemperatureF,DewpointF,PressureIn,WindDirection,WindDirectionDegrees,WindSpeedMPH,WindSpeedGustMPH,Humidity,HourlyPrecipIn,Conditions,Clouds,dailyrainin,SoftwareType,DateUTC
2013-04-29 00:03:00,60.1,48.0,29.94,North,5,0.0,1.0,64,0.00,,,0.00,weatherlink.com 1.10,2013-04-29 07:03:00,
2013-04-29 00:18:00,59.7,48.0,29.94,North,11,0.0,2.0,65,0.00,,,0.00,weatherlink.com 1.10,2013-04-29 07:18:00,
2013-04-29 00:33:00,59.3,48.0,29.94,NNE,28,0.0,1.0,66,0.00,,,0.00,weatherlink.com 1.10,2013-04-29 07:33:00,
2013-04-29 00:48:00,58.7,48.0,29.94,NNE,15,0.0,0.0,67,0.00,,,0.00,weatherlink.com 1.10,2013-04-29 07:48:00,
2013-04-29 01:03:00,58.0,48.0,29.94,NNE,24,0.0,2.0,69,0.00,,,0.00,weatherlink.com 1.10,2013-04-29 08:03:00,
2013-04-29 01:18:00,57.8,47.0,29.93,NNE,12,0.0,2.0,68,0.00,,,0.00,weatherlink.com 1.10,2013-04-29 08:18:00,
2013-04-29 01:33:00,58.0,47.0,29.93,NNE,26,0.0,1.0,68,0.00,,,0.00,weatherlink.com 1.10,2013-04-29 08:33:00,
2013-04-29 01:48:00,58.5,47.0,29.93,NNE,14,0.0,2.0,66,0.00,,,0.00,weatherlink.com 1.10,2013-04-29 08:48:00,
2013-04-29 02:03:00,58.5,47.0,29.92,NNE,26,0.0,1.0,67,0.00,,,0.00,weatherlink.com 1.10,2013-04-29 09:03:00,
2013-04-29 02:18:00,58.2,48.0,29.91,NNE,26,1.0,2.0,68,0.00,,,0.00,weatherlink.com 1.10,2013-04-29 09:18:00,
2013-04-29 02:33:00,56.2,47.0,29.91,NNE,28,0.0,4.0,70,0.00,,,0.00,weatherlink.com 1.10,2013-04-29 09:33:00,
2013-04-29 02:49:00,54.8,46.0,29.90,NE,35,0.0,5.0,73,0.00,,,0.00,weatherlink.com 1.10,2013-04-29 09:49:00,
2013-04-29 03:04:00,54.9,46.0,29.90,NNE,27,0.0,4.0,73,0.00,,,0.00,weatherlink.com 1.10,2013-04-29 10:04:00,
2013-04-29 03:19:00,55.9,47.0,29.90,NNE,28,0.0,3.0,71,0.00,,,0.00,weatherlink.com 1.10,2013-04-29 10:19:00,
2013-04-29 03:34:00,55.7,47.0,29.90,NNE,25,0.0,3.0,72,0.00,,,0.00,weatherlink.com 1.10,2013-04-29 10:34:00,
2013-04-29 03:49:00,55.9,47.0,29.91,NNE,30,0.0,3.0,72,0.00,,,0.00,weatherlink.com 1.10,2013-04-29 10:49:00,
2013-04-29 04:04:00,56.6,47.0,29.91,NNE,24,1.0,3.0,70,0.00,,,0.00,weatherlink.com 1.10,2013-04-29 11:04:00,
2013-04-29 04:19:00,56.1,47.0,29.91,NNE,26,1.0,3.0,71,0.00,,,0.00,weatherlink.com 1.10,2013-04-29 11:19:00,
2013-04-29 04:34:00,56.6,47.0,29.91,NNE,26,0.0,2.0,70,0.00,,,0.00,weatherlink.com 1.10,2013-04-29 11:34:00,
2013-04-29 04:49:00,56.9,47.0,29.91,NNE,24,1.0,3.0,69,0.00,,,0.00,weatherlink.com 1.10,2013-04-29 11:49:00,
2013-04-29 05:04:00,56.6,46.0,29.91,NNE,26,0.0,3.0,69,0.00,,,0.00,weatherlink.com 1.10,2013-04-29 12:04:00,
2013-04-29 05:19:00,56.5,47.0,29.91,North,11,0.0,2.0,70,0.00,,,0.00,weatherlink.com 1.10,2013-04-29 12:19:00,
2013-04-29 05:34:00,56.5,46.0,29.91,NNE,20,0.0,2.0,69,0.00,,,0.00,weatherlink.com 1.10,2013-04-29 12:34:00,
2013-04-29 05:49:00,56.5,47.0,29.91,NNE,22,0.0,2.0,70,0.00,,,0.00,weatherlink.com 1.10,2013-04-29 12:49:00,
2013-04-29 06:04:00,56.9,47.0,29.91,NNE,24,0.0,3.0,69,0.00,,,0.00,weatherlink.com 1.10,2013-04-29 13:04:00,
2013-04-29 06:19:00,57.8,47.0,29.91,NNE,17,0.0,2.0,67,0.00,,,0.00,weatherlink.com 1.10,2013-04-29 13:19:00,
2013-04-29 06:34:00,58.0,47.0,29.92,NNE,30,0.0,4.0,67,0.00,,,0.00,weatherlink.com 1.10,2013-04-29 13:34:00,
2013-04-29 06:49:00,58.0,47.0,29.92,NNE,25,0.0,2.0,66,0.00,,,0.00,weatherlink.com 1.10,2013-04-29 13:49:00,
2013-04-29 07:04:00,57.8,47.0,29.92,NNE,12,0.0,2.0,67,0.00,,,0.00,weatherlink.com 1.10,2013-04-29 14:04:00,
2013-04-29 07:19:00,57.8,47.0,29.93,NNE,26,0.0,1.0,68,0.00,,,0.00,weatherlink.com 1.10,2013-04-29 14:19:00,
2013-04-29 07:34:00,58.5,48.0,29.93,NNE,26,0.0,2.0,69,0.00,,,0.00,weatherlink.com 1.10,2013-04-29 14:34:00,
2013-04-29 07:49:00,58.4,49.0,29.93,NNE,27,0.0,2.0,71,0.00,,,0.00,weatherlink.com 1.10,2013-04-29 14:49:00,
2013-04-29 08:04:00,58.3,49.0,29.93,NW,310,0.0,2.0,72,0.00,,,0.00,weatherlink.com 1.10,2013-04-29 15:04:00,
2013-04-29 08:19:00,58.6,51.0,29.94,North,355,0.0,0.0,75,0.00,,,0.00,weatherlink.com 1.10,2013-04-29 15:19:00,
2013-04-29 08:34:00,60.1,52.0,29.94,NNE,20,0.0,0.0,74,0.00,,,0.00,weatherlink.com 1.10,2013-04-29 15:34:00,
2013-04-29 08:49:00,61.8,52.0,29.93,North,350,0.0,2.0,70,0.00,,,0.00,weatherlink.com 1.10,2013-04-29 15:49:00,
2013-04-29 09:04:00,58.0,50.0,29.93,SSW,213,0.0,2.0,76,0.00,,,0.00,weatherlink.com 1.10,2013-04-29 16:04:00,
2013-04-29 09:19:00,59.8,52.0,29.93,South,184,1.0,2.0,74,0.00,,,0.00,weatherlink.com 1.10,2013-04-29 16:19:00,
2013-04-29 09:34:00,59.5,52.0,29.93,SSW,197,0.0,3.0,75,0.00,,,0.00,weatherlink.com 1.10,2013-04-29 16:34:00,
2013-04-29 09:49:00,59.9,51.0,29.93,SSW,196,0.0,3.0,73,0.00,,,0.00,weatherlink.com 1.10,2013-04-29 16:49:00,
2013-04-29 10:04:00,60.6,52.0,29.93,SSW,205,2.0,3.0,73,0.00,,,0.00,weatherlink.com 1.10,2013-04-29 17:04:00,
2013-04-29 10:19:00,60.8,52.0,29.94,SSW,202,2.0,4.0,73,0.00,,,0.00,weatherlink.com 1.10,2013-04-29 17:19:00,
2013-04-29 10:34:00,61.2,52.0,29.93,SSW,194,2.0,4.0,72,0.00,,,0.00,weatherlink.com 1.10,2013-04-29 17:34:00,
2013-04-29 10:49:00,62.0,53.0,29.94,SSW,193,3.0,5.0,72,0.00,,,0.00,weatherlink.com 1.10,2013-04-29 17:49:00,
2013-04-29 11:04:00,63.1,53.0,29.94,SSW,199,4.0,6.0,70,0.00,,,0.00,weatherlink.com 1.10,2013-04-29 18:04:00,
2013-04-29 11:19:00,62.4,53.0,29.93,South,188,3.0,6.0,71,0.00,,,0.00,weatherlink.com 1.10,2013-04-29 18:19:00,
2013-04-29 11:34:00,62.6,53.0,29.93,SSW,203,4.0,5.0,71,0.00,,,0.00,weatherlink.com 1.10,2013-04-29 18:34:00,
2013-04-29 11:49:00,63.3,53.0,29.93,SSW,202,3.0,5.0,70,0.00,,,0.00,weatherlink.com 1.10,2013-04-29 18:49:00,
2013-04-29 12:04:00,64.9,54.0,29.92,SSW,195,5.0,7.0,68,0.00,,,0.00,weatherlink.com 1.10,2013-04-29 19:04:00,
2013-04-29 12:19:00,65.9,54.0,29.92,SSW,202,5.0,7.0,66,0.00,,,0.00,weatherlink.com 1.10,2013-04-29 19:19:00,
2013-04-29 12:34:00,67.0,54.0,29.91,SE,145,2.0,7.0,64,0.00,,,0.00,weatherlink.com 1.10,2013-04-29 19:34:00,
2013-04-29 12:49:00,67.8,55.0,29.91,WSW,237,4.0,7.0,63,0.00,,,0.00,weatherlink.com 1.10,2013-04-29 19:49:00,
2013-04-29 13:04:00,68.5,55.0,29.91,SSW,200,5.0,7.0,62,0.00,,,0.00,weatherlink.com 1.10,2013-04-29 20:04:00,
2013-04-29 13:19:00,73.1,56.0,29.90,South,171,3.0,5.0,56,0.00,,,0.00,weatherlink.com 1.10,2013-04-29 20:19:00,
2013-04-29 13:49:00,74.9,54.0,29.89,ENE,71,0.0,5.0,49,0.00,,,0.00,weatherlink.com 1.10,2013-04-29 20:49:00,
2013-04-29 14:04:00,75.5,55.0,29.89,SSW,193,1.0,4.0,49,0.00,,,0.00,weatherlink.com 1.10,2013-04-29 21:04:00,
2013-04-29 14:20:00,75.7,54.0,29.89,SSW,197,2.0,6.0,47,0.00,,,0.00,weatherlink.com 1.10,2013-04-29 21:20:00,
2013-04-29 14:35:00,76.1,53.0,29.89,NW,321,1.0,9.0,45,0.00,,,0.00,weatherlink.com 1.10,2013-04-29 21:35:00,
2013-04-29 14:50:00,76.0,53.0,29.88,SW,216,3.0,6.0,45,0.00,,,0.00,weatherlink.com 1.10,2013-04-29 21:50:00,
2013-04-29 15:05:00,75.1,53.0,29.89,SSW,202,3.0,5.0,46,0.00,,,0.00,weatherlink.com 1.10,2013-04-29 22:05:00,
2013-04-29 15:20:00,74.3,53.0,29.88,SW,223,0.0,5.0,48,0.00,,,0.00,weatherlink.com 1.10,2013-04-29 22:20:00,
2013-04-29 15:35:00,75.0,53.0,29.88,SSE,161,2.0,7.0,47,0.00,,,0.00,weatherlink.com 1.10,2013-04-29 22:35:00,
2013-04-29 15:50:00,71.4,53.0,29.88,SSW,211,4.0,7.0,52,0.00,,,0.00,weatherlink.com 1.10,2013-04-29 22:50:00,
2013-04-29 16:05:00,69.8,53.0,29.88,SSW,205,4.0,8.0,56,0.00,,,0.00,weatherlink.com 1.10,2013-04-29 23:05:00,
2013-04-29 16:20:00,67.9,53.0,29.88,SSW,204,3.0,7.0,59,0.00,,,0.00,weatherlink.com 1.10,2013-04-29 23:20:00,
2013-04-29 16:35:00,67.0,52.0,29.88,WSW,244,2.0,7.0,60,0.00,,,0.00,weatherlink.com 1.10,2013-04-29 23:35:00,
2013-04-29 16:50:00,68.1,52.0,29.88,SSW,192,4.0,7.0,57,0.00,,,0.00,weatherlink.com 1.10,2013-04-29 23:50:00,
2013-04-29 17:05:00,67.4,51.0,29.88,SSE,163,4.0,7.0,57,0.00,,,0.00,weatherlink.com 1.10,2013-04-30 00:05:00,
2013-04-29 17:20:00,66.6,52.0,29.88,WSW,251,1.0,7.0,59,0.00,,,0.00,weatherlink.com 1.10,2013-04-30 00:20:00,
2013-04-29 17:35:00,66.2,51.0,29.88,ESE,120,3.0,6.0,58,0.00,,,0.00,weatherlink.com 1.10,2013-04-30 00:35:00,
2013-04-29 17:50:00,65.5,51.0,29.88,South,178,0.0,4.0,60,0.00,,,0.00,weatherlink.com 1.10,2013-04-30 00:50:00,
2013-04-29 18:05:00,64.9,51.0,29.88,West,272,0.0,3.0,60,0.00,,,0.00,weatherlink.com 1.10,2013-04-30 01:05:00,
2013-04-29 18:20:00,64.6,50.0,29.88,SSE,163,1.0,4.0,60,0.00,,,0.00,weatherlink.com 1.10,2013-04-30 01:20:00,
2013-04-29 18:35:00,61.4,49.0,29.87,South,186,0.0,4.0,65,0.00,,,0.00,weatherlink.com 1.10,2013-04-30 01:35:00,
2013-04-29 18:50:00,58.5,49.0,29.87,SSW,203,0.0,3.0,70,0.00,,,0.00,weatherlink.com 1.10,2013-04-30 01:50:00,
2013-04-29 19:05:00,57.8,49.0,29.86,South,188,1.0,4.0,73,0.00,,,0.00,weatherlink.com 1.10,2013-04-30 02:05:00,
2013-04-29 19:20:00,57.5,49.0,29.86,South,188,0.0,3.0,74,0.00,,,0.00,weatherlink.com 1.10,2013-04-30 02:20:00,
2013-04-29 19:35:00,56.9,49.0,29.86,SSW,203,1.0,2.0,74,0.00,,,0.00,weatherlink.com 1.10,2013-04-30 02:35:00,
2013-04-29 19:50:00,56.4,49.0,29.86,SW,215,0.0,0.0,76,0.00,,,0.00,weatherlink.com 1.10,2013-04-30 02:50:00,
2013-04-29 20:05:00,55.9,48.0,29.86,SW,215,2.0,2.0,76,0.00,,,0.00,weatherlink.com 1.10,2013-04-30 03:05:00,
2013-04-29 20:20:00,55.1,48.0,29.86,SW,215,0.0,0.0,77,0.00,,,0.00,weatherlink.com 1.10,2013-04-30 03:20:00,
2013-04-29 20:35:00,54.0,47.0,29.86,SE,142,0.0,3.0,78,0.00,,,0.00,weatherlink.com 1.10,2013-04-30 03:35:00,
2013-04-29 20:50:00,53.2,47.0,29.86,ENE,74,0.0,2.0,79,0.00,,,0.00,weatherlink.com 1.10,2013-04-30 03:50:00,
2013-04-29 21:05:00,52.7,47.0,29.86,East,87,0.0,0.0,80,0.00,,,0.00,weatherlink.com 1.10,2013-04-30 04:05:00,
2013-04-29 21:20:00,52.1,46.0,29.87,SSE,150,0.0,0.0,80,0.00,,,0.00,weatherlink.com 1.10,2013-04-30 04:20:00,
2013-04-29 21:35:00,51.6,46.0,29.86,ENE,63,0.0,0.0,81,0.00,,,0.00,weatherlink.com 1.10,2013-04-30 04:35:00,
2013-04-29 21:50:00,51.1,45.0,29.87,ESE,103,0.0,0.0,81,0.00,,,0.00,weatherlink.com 1.10,2013-04-30 04:50:00,
2013-04-29 22:05:00,50.6,45.0,29.87,ESE,106,0.0,2.0,82,0.00,,,0.00,weatherlink.com 1.10,2013-04-30 05:05:00,
2013-04-29 22:20:00,50.4,45.0,29.87,NNE,26,0.0,0.0,82,0.00,,,0.00,weatherlink.com 1.10,2013-04-30 05:20:00,
2013-04-29 22:35:00,50.3,45.0,29.86,North,11,0.0,1.0,82,0.00,,,0.00,weatherlink.com 1.10,2013-04-30 05:35:00,
2013-04-29 22:50:00,50.1,45.0,29.86,NNE,27,0.0,3.0,82,0.00,,,0.00,weatherlink.com 1.10,2013-04-30 05:50:00,
2013-04-29 23:05:00,50.1,45.0,29.86,NE,40,0.0,1.0,82,0.00,,,0.00,weatherlink.com 1.10,2013-04-30 06:05:00,
2013-04-29 23:20:00,50.4,45.0,29.86,NE,34,0.0,0.0,81,0.00,,,0.00,weatherlink.com 1.10,2013-04-30 06:20:00,
2013-04-29 23:35:00,50.0,44.0,29.86,North,5,0.0,0.0,81,0.00,,,0.00,weatherlink.com 1.10,2013-04-30 06:35:00,
2013-04-29 23:50:00,49.7,44.0,29.87,NE,36,0.0,1.0,81,0.00,,,0.00,weatherlink.com 1.10,2013-04-30 06:50:00,